Location: Unspecified
(0.0000°N, 0.0000°E)
Time: 23:00:16
(UTC+00:00)

Hubble Space Telescope - Pass Details

Date: 17 April 2026
Orbit: 474 x 477 km, 28.5° (Epoch: 18 April)

Event Time Altitude Azimuth Distance (km) Brightness Sun altitude
Rises 19:42:36 0° 252° (WSW) 2,510 5.1 -25.3°
Reaches altitude 10° 19:44:53 10° 260° (W) 1,631 4.1 -25.9°
Enters shadow 19:47:43 34° 303° (WNW) 785 2.0 -26.5°
